Weather History for Valladolid Airport, Spain

Change the Weather History Date:

Sunday, November 17, 2013

  Actual Average Record
Temperature  
Mean Temperature 42 °F -  
Max Temperature 44 °F - - ()
Min Temperature 39 °F - - ()
Degree Days  
Heating Degree Days 24    
Moisture  
Dew Point 40 °F    
Average Humidity 91    
Maximum Humidity 100    
Minimum Humidity 81    
Precipitation  
Precipitation 0.00 in - - ()
Sea Level Pressure  
Sea Level Pressure 29.98 in    
Wind  
Wind Speed 8 mph ()    
Max Wind Speed 16 mph    
Max Gust Speed -    
Visibility 6.2 miles    
Events Rain    
T = Trace of Precipitation, MM = Missing Value Source: Averaged Metar Reports

Daily Weather History Graph

Daily Weather History Graph

Search for Another Location

Airport:

Trip Planner

Search our weather history database for the weather conditions in past years. The results will help you decide how hot, cold, wet, or windy it might be!

Date:

Astronomy

Nov. 17, 2013 Rise Set
Actual Time 8:11 AM CET 5:57 PM CET
Civil Twilight 7:41 AM CET 6:27 PM CET
Nautical Twilight 7:07 AM CET 7:01 PM CET
Astronomical Twilight 6:34 AM CET 7:34 PM CET
Moon 6:04 PM CET (11/17) 7:51 AM CET (11/17)
Length of Visible Light 10h 46m
Length of Day
9h 46m
Full, 100% of the Moon is Illuminated
Nov 17
Full
Nov 17
Full
Nov 25
Last Quarter
Dec 3
New
Dec 9
First Quarter

Hourly Weather History & Observations

Time (CET) Temp. Windchill Dew Point Humidity Pressure Visibility Wind Dir Wind Speed Gust Speed Precip Events Conditions
7:00 AM 39.2 °F 32.0 °F 37.4 °F 93% 30.01 in 6.2 mi North 11.5 mph - N/A   Scattered Clouds
7:30 AM 39.2 °F 34.2 °F 37.4 °F 93% 30.04 in 6.2 mi North 6.9 mph - N/A   Mostly Cloudy
8:00 AM 39.2 °F 33.0 °F 37.4 °F 93% 30.01 in 6.2 mi NNE 9.2 mph - N/A   Mostly Cloudy
8:30 AM 39.2 °F 34.2 °F 37.4 °F 93% 30.01 in 6.2 mi North 6.9 mph - N/A   Mostly Cloudy
9:00 AM 39.2 °F 37.0 °F 37.4 °F 93% 30.04 in 6.2 mi North 3.5 mph - N/A   Mostly Cloudy
9:30 AM 39.2 °F - 37.4 °F 93% 30.04 in 6.2 mi Variable 2.3 mph - N/A   Mostly Cloudy
10:00 AM 41.0 °F 35.8 °F 37.4 °F 87% 30.01 in 6.2 mi North 8.1 mph - N/A   Overcast
10:30 AM 42.8 °F 38.6 °F 39.2 °F 87% 30.01 in 6.2 mi North 6.9 mph - N/A   Overcast
11:00 AM 42.8 °F 36.6 °F 39.2 °F 87% 30.01 in 6.2 mi NNE 11.5 mph - N/A   Overcast
11:30 AM 42.8 °F 36.6 °F 39.2 °F 87% 30.01 in 6.2 mi NNE 11.5 mph - N/A   Mostly Cloudy
12:00 PM 44.6 °F 39.2 °F 39.2 °F 81% 30.01 in 6.2 mi NNE 10.4 mph - N/A   Mostly Cloudy
12:30 PM 44.6 °F 39.7 °F 39.2 °F 81% 29.98 in 6.2 mi NE 9.2 mph - N/A   Mostly Cloudy
1:00 PM 44.6 °F 40.2 °F 41.0 °F 87% 29.98 in 6.2 mi North 8.1 mph - N/A   Mostly Cloudy
1:30 PM 44.6 °F 40.2 °F 41.0 °F 87% 29.98 in 6.2 mi NNE 8.1 mph - N/A   Mostly Cloudy
2:00 PM 44.6 °F 40.2 °F 41.0 °F 87% 29.95 in 6.2 mi NNE 8.1 mph - N/A   Mostly Cloudy
2:30 PM 44.6 °F 39.7 °F 42.8 °F 93% 29.95 in 6.2 mi NE 9.2 mph - N/A Rain Light Rain
3:00 PM 44.6 °F 39.2 °F 42.8 °F 93% 29.95 in 6.2 mi NE 10.4 mph - N/A Rain Light Rain
3:30 PM 42.8 °F 35.8 °F 41.0 °F 93% 29.95 in 6.2 mi NE 13.8 mph - N/A Rain Rain
4:00 PM 42.8 °F 35.8 °F 41.0 °F 93% 29.95 in 6.2 mi NE 13.8 mph - N/A Rain Rain
4:30 PM 42.8 °F 36.2 °F 41.0 °F 93% 29.95 in 6.2 mi NE 12.7 mph - N/A Rain Rain
5:00 PM 42.8 °F 36.2 °F 41.0 °F 93% 29.95 in 6.2 mi NE 12.7 mph - N/A Rain Rain
5:30 PM 42.8 °F 35.1 °F 41.0 °F 93% 29.95 in 6.2 mi NE 16.1 mph - N/A Rain Rain
6:00 PM 41.0 °F 33.1 °F 41.0 °F 100% 29.95 in 6.2 mi NE 15.0 mph - N/A Rain Rain
6:30 PM 41.0 °F 33.5 °F 39.2 °F 93% 29.95 in 6.2 mi NE 13.8 mph - N/A Rain Light Rain
7:00 PM 41.0 °F 33.5 °F 39.2 °F 93% 29.95 in 6.2 mi NE 13.8 mph - N/A Rain Light Rain
7:30 PM 41.0 °F 34.7 °F 39.2 °F 93% 29.95 in 6.2 mi NE 10.4 mph - N/A Rain Rain
8:00 PM 41.0 °F 35.2 °F 39.2 °F 93% 29.92 in 6.2 mi NE 9.2 mph - N/A   Mostly Cloudy
8:30 PM 39.2 °F 33.0 °F 39.2 °F 100% 29.95 in 6.2 mi NE 9.2 mph - N/A   Scattered Clouds
9:00 PM 39.2 °F 35.0 °F 37.4 °F 93% 29.95 in 6.2 mi ENE 5.8 mph - N/A   Scattered Clouds
9:30 PM 39.2 °F 32.5 °F 39.2 °F 100% 29.95 in 6.2 mi ENE 10.4 mph - N/A   Scattered Clouds